Cox Field Paris US
ICAO: KPRX
IATA: PRX
Category: Medium
Scheduled Services: No

Elevation: 547 ft
TransAlt. 18000 ft.

Airport Communications:
AWOS 3:119.675
FORT WORTH CNTR:123.925
FORT WORTH RDO:122.25
CTAF/UNICOM:122.975

KPRX Zoom In..

Runways:

(A) RW 03 length 4624 ft width 150 ft
---- / hdg 33

(B) RW 14 length 4624 ft width 150 ft
---- / hdg 137

(C) RW 17 length 6002 ft width 100 ft
---- / hdg 175

(D) RW 21 length 4624 ft width 150 ft
---- / hdg 213

(E) RW 32 length 4624 ft width 150 ft
---- / hdg 317

(F) RW 35 length 6002 ft width 100 ft
---- / hdg 355

Location; KPRX
Day. 25 / Time. 09.56 Zulu
* Altimeter: 30.05
* Temperature: 15° c. 59°f.
* Wind from: 290° Speed 03 kn.
Dewpoint: 10° c.
Visibility: 10 Statute Miles.
Clouds: Few 12000 ft.

KPRX 250956Z AUTO 29003KT 10SM FEW120 15/10 A3005 RMK AO2 SLP187 T01500100


Wind From 290°
Speed 03 kn.

  YouTube Music Video
 
jpsmedia.com for Web Design  worldairports.se 2018   terms of use